Terminal Aerodrome Forecast
Issued by NWS

Home | Current Version | Previous Version | Text Only | Print | Product List | Glossary On
Versions: 1 2 3 4 5 6 7 8 9 10 11 12 13
000
FTUS44 KBMX 012300
TAFTOI
TAF
KTOI 012336Z 0200/0224 08003KT 6SM BR VCSH OVC007
     FM020500 VRB03KT 1SM BR VCSH OVC002
     FM021500 VRB03KT 5SM -DZ BR OVC007=

USA.gov is the U.S. government's official web portal to all federal, state and local government web resources and services.